Theta_e
312 312 313 314 314 314 314 314 314 315 315 315 315 315 315 315 315 315 315 315 315 315 315 315 316 315 314 314 314 313 312 312 312 310 310 310 310 310 311 312 311 311
312 312 313 313 313 313 313 313 313 314 315 315 314 315 314 314 314 314 315 315 315 314 314 315 315 314 313 313 313 313 312 312 312 311 310 310 311 310 310 311 311 311
311 312 312 313 313 312 313 313 313 313 314 314 314 314 314 314 314 314 314 314 314 314 314 314 314 314 313 313 313 313 312 312 312 311 311 310 311 310 310 310 310 311
311 311 312 312 312 312 312 313 313 313 314 314 314 314 314 314 314 314 314 314 314 314 314 313 314 314 313 313 313 313 312 311 312 311 311 310 310 311 310 310 310 310
311 311 311 311 312 312 312 313 313 313 313 314 313 313 314 314 314 313 313 313 313 313 313 313 313 313 313 312 312 312 312 311 311 311 311 310 310 310 311 311 310 310
311 311 311 311 311 311 312 312 312 313 313 313 313 313 313 313 313 313 313 313 313 313 313 313 313 312 312 312 312 312 311 311 311 311 310 310 310 310 310 311 311 310
310 310 310 310 310 310 311 311 311 311 311 312 312 312 312 312 312 312 312 312 312 312 312 312 312 312 312 312 312 311 311 311 311 310 310 310 310 310 310 311 311 310
308 309 309 310 310 310 310 310 310 310 310 310 311 311 311 311 311 311 311 311 311 311 312 312 312 312 311 311 311 311 311 311 311 310 310 310 310 310 310 311 311 311
307 308 309 309 310 309 309 309 310 310 310 310 310 310 311 311 311 311 310 310 310 310 311 311 311 311 311 311 311 311 311 311 310 310 310 310 309 310 310 310 311 310
307 307 308 309 309 309 309 309 309 309 310 310 310 310 310 311 310 310 310 310 310 310 310 311 311 311 311 311 310 311 310 310 310 310 310 310 309 309 309 310 310 310
307 307 307 307 307 308 308 308 308 309 309 309 310 310 310 310 310 310 310 310 310 310 310 310 310 310 310 310 310 310 310 310 310 310 310 310 309 309 309 309 309 309
307 307 307 306 306 306 306 307 307 308 309 309 309 309 310 310 310 310 310 310 309 309 309 309 310 310 310 310 310 309 310 309 310 310 309 310 309 309 309 309 309 309
307 307 307 307 306 307 306 307 307 308 308 309 309 309 309 310 310 310 310 309 309 309 309 309 309 309 309 309 309 309 309 309 309 309 309 309 309 309 309 309 309 309
307 307 307 307 307 307 307 307 307 308 308 308 309 309 309 309 310 310 309 309 309 309 309 309 309 309 309 309 309 309 308 308 309 309 309 309 309 309 309 309 309 309
306 306 306 307 307 307 307 308 308 308 308 308 308 308 308 308 309 309 309 309 309 309 309 309 309 309 309 309 309 308 308 308 308 308 309 308 309 309 309 309 309 309
306 306 306 306 307 307 307 308 308 308 308 308 308 308 308 308 308 309 309 309 309 309 309 309 309 309 309 309 309 308 308 308 308 308 308 308 308 308 308 308 309 309
304 305 306 306 307 307 307 307 307 308 308 308 308 308 308 308 308 308 308 308 308 308 308 308 308 309 309 308 308 308 308 308 308 308 308 308 308 308 308 308 308 308
302 302 302 303 304 305 305 305 306 306 307 307 308 307 308 307 307 307 308 308 308 308 308 308 308 308 308 308 308 308 308 308 307 307 307 308 308 308 307 307 307 308
299 300 300 300 301 302 303 303 304 305 305 306 306 306 307 307 307 307 307 307 308 308 308 308 308 308 308 308 308 308 308 308 307 307 307 307 307 307 307 307 307 307
297 297 298 299 300 301 301 302 302 303 304 304 305 305 305 306 306 306 306 307 307 307 307 307 307 307 307 307 308 308 308 307 307 307 307 307 307 307 307 307 307 307
292 293 295 297 299 300 301 301 301 302 302 302 303 304 304 305 305 305 305 306 306 306 306 307 306 307 307 307 307 307 307 307 307 307 307 307 307 307 307 307 306 306
290 291 292 293 296 297 298 299 300 300 301 302 302 303 303 303 304 304 304 304 305 305 305 305 305 306 306 306 306 306 306 306 306 306 307 307 307 307 306 306 306 306
290 290 291 292 293 294 295 296 297 298 300 301 301 301 302 302 302 302 303 303 303 303 303 304 304 304 304 304 305 305 305 306 306 305 306 306 306 306 306 306 306 306
289 290 291 291 292 293 294 295 295 296 297 298 299 300 300 301 301 301 301 301 301 301 301 302 302 302 302 302 303 303 304 304 305 304 304 305 305 305 305 305 305 305
289 289 290 291 291 292 293 293 294 295 295 295 296 298 298 299 299 299 298 297 298 298 298 299 299 299 299 300 300 301 302 303 303 303 303 303 303 303 303 304 304 304
289 289 290 290 291 292 292 292 293 294 294 294 295 296 297 296 296 296 295 294 294 295 295 296 296 297 297 297 298 298 299 300 301 301 301 301 302 301 301 301 301 302
Wind_Speed
20 23 23 23 23 23 24 26 25 26 27 28 28 29 30 30 30 31 32 31 31 31 30 30 30 30 31 31 31 32 33 33 34 34 34 33 32 33 30 27 27 27
19 20 21 21 22 21 21 23 24 25 26 27 26 27 27 28 28 30 32 31 30 30 30 30 29 30 31 31 31 31 32 32 32 33 34 34 32 32 32 30 27 27
18 19 20 20 21 21 20 21 23 23 24 24 24 24 25 26 27 28 30 31 30 30 30 30 30 30 31 32 31 32 32 32 32 33 33 34 33 31 32 32 29 27
18 18 19 19 19 20 19 19 21 22 21 22 22 22 23 25 26 27 29 30 30 30 30 30 30 30 31 31 32 32 32 31 32 33 33 33 33 32 31 32 32 28
16 17 18 18 18 18 19 19 21 21 21 21 21 21 22 23 25 27 28 30 30 30 30 30 30 30 30 31 31 31 31 30 30 32 32 32 32 33 31 31 33 31
15 17 18 18 18 18 19 19 20 21 21 20 20 21 21 22 24 26 27 29 29 29 29 30 29 29 30 31 30 31 31 30 29 31 32 31 31 32 32 31 32 32
15 16 17 18 19 20 20 20 20 21 21 20 20 20 21 21 23 24 26 27 28 29 29 29 29 29 30 31 30 30 31 30 30 31 32 32 31 32 32 31 32 32
15 15 16 17 19 20 21 22 22 21 21 21 20 21 21 22 22 23 24 25 27 28 28 28 29 29 30 31 31 30 30 30 30 31 32 32 31 32 32 31 32 32
13 15 16 17 18 19 20 21 22 21 20 21 21 22 22 22 23 23 24 25 26 27 27 27 28 29 30 31 31 30 30 30 30 31 32 32 32 32 33 32 32 32
13 14 15 16 18 19 20 21 21 20 20 21 21 22 23 23 23 24 24 25 25 26 27 28 28 29 30 30 31 31 31 31 31 31 32 33 33 33 34 34 33 33
13 14 16 17 18 20 20 20 20 20 20 21 22 22 23 24 24 24 25 25 26 27 27 28 29 29 30 30 31 31 32 31 31 31 32 33 33 33 34 35 35 34
14 15 17 18 19 20 20 20 20 21 21 22 23 23 24 24 25 25 26 26 27 27 27 28 28 29 29 30 31 31 31 31 31 32 32 33 34 33 33 34 35 35
14 16 17 18 19 20 20 20 20 21 22 22 23 23 24 25 25 26 26 27 27 27 27 27 28 28 29 30 30 31 31 31 31 32 32 32 33 33 33 33 34 35
13 14 16 17 18 19 19 19 20 20 21 22 23 24 25 25 26 26 26 26 27 27 27 27 27 28 29 30 30 30 31 31 31 32 32 31 31 32 33 32 33 34
12 13 14 15 16 17 18 18 19 20 21 22 23 24 25 25 26 25 26 26 27 27 26 27 28 29 30 30 30 30 31 31 31 31 31 31 30 31 32 32 32 33
10 11 12 13 14 16 17 17 18 19 20 21 23 24 25 25 26 25 26 26 26 26 26 27 28 29 30 30 30 30 31 31 31 31 30 31 30 31 32 33 33 33
9 9 9 10 11 13 14 15 16 18 19 20 22 23 24 24 24 25 26 26 26 26 26 27 29 29 29 29 29 29 30 30 30 30 30 30 31 31 31 32 32 33
11 10 10 9 10 11 12 13 14 16 17 19 20 21 21 22 23 25 25 25 25 26 27 28 28 28 27 27 28 28 29 29 29 29 29 30 30 31 31 32 32 32
14 13 12 12 11 11 11 12 13 14 16 17 18 19 20 20 22 23 24 24 24 25 26 27 27 26 26 26 26 27 28 28 28 28 29 29 30 30 30 31 32 31
16 15 14 13 12 11 11 10 11 13 14 16 17 17 18 20 21 21 22 22 23 23 24 24 24 24 24 25 25 26 27 28 28 27 28 29 30 30 30 31 32 32
18 18 17 15 14 12 10 9 9 10 11 13 14 15 16 18 18 19 19 19 20 20 21 21 21 22 22 23 24 25 27 28 28 27 26 27 28 29 30 31 31 32
18 18 18 17 16 14 11 10 9 8 8 8 9 11 12 13 14 15 16 17 17 18 18 19 19 19 20 20 21 23 25 28 29 27 24 24 26 27 28 29 30 32
17 17 17 16 16 15 14 12 10 9 7 6 6 6 7 8 10 10 11 12 13 14 15 16 17 17 18 18 19 21 24 27 30 28 24 22 23 24 26 27 28 30
17 16 16 15 15 14 14 12 11 9 8 7 6 5 5 6 8 8 7 8 9 11 11 12 14 15 15 16 17 19 23 26 28 28 25 21 20 20 21 23 25 26
17 16 15 15 14 13 13 12 10 9 8 8 6 5 4 5 5 5 5 5 6 7 8 9 11 12 13 14 16 18 21 24 26 26 24 21 20 19 19 20 22 22
17 16 15 14 14 13 12 11 10 8 8 6 5 4 3 3 4 4 4 3 3 4 5 7 9 10 12 13 14 16 19 21 23 24 23 22 21 20 19 18 19 20
Wind_Direction
197 197 197 197 196 196 197 197 197 198 199 200 201 203 204 205 205 204 204 205 206 206 206 207 208 208 205 205 205 202 201 201 201 202 202 203 204 203 201 200 200 201
198 199 200 201 200 201 203 204 202 203 203 203 205 206 206 205 205 205 205 205 206 207 207 206 207 207 205 205 205 203 202 202 202 202 202 203 204 204 203 202 201 201
199 199 201 203 203 203 206 207 206 207 207 206 206 208 208 207 206 206 206 205 205 206 207 207 208 208 207 207 207 205 203 202 202 201 202 203 203 203 205 204 202 202
202 202 203 204 203 203 204 205 204 206 207 206 206 208 208 207 206 205 205 205 205 205 206 207 208 208 207 207 206 204 204 204 203 201 201 203 204 204 204 204 203 201
205 205 205 205 203 202 204 204 203 203 204 204 204 205 206 204 204 204 204 204 205 205 206 206 207 207 206 205 205 204 203 203 203 201 201 202 203 204 204 203 203 202
209 210 210 209 207 205 207 208 207 206 205 205 204 205 206 204 204 205 204 205 205 205 205 205 205 206 205 205 205 205 204 204 203 202 201 202 202 203 204 203 203 203
212 213 213 213 213 212 212 213 214 213 212 211 210 210 210 209 207 207 207 206 206 205 205 205 205 205 206 205 206 206 206 205 204 202 202 202 201 201 202 203 203 203
214 214 214 215 215 215 216 217 218 219 218 216 215 215 215 214 213 211 211 210 208 207 206 206 206 206 206 205 206 206 205 205 205 203 201 201 200 200 200 201 202 203
215 215 214 215 217 218 219 220 220 221 219 217 217 216 217 218 217 216 214 213 211 210 208 207 208 207 207 206 206 206 206 206 205 204 202 201 200 201 201 200 201 202
217 218 218 220 223 224 224 224 223 222 220 219 218 217 217 218 219 218 216 214 213 211 209 209 209 208 208 208 208 209 208 207 207 206 205 204 203 203 202 201 201 202
223 222 224 227 231 232 232 230 228 226 224 223 221 219 218 218 218 217 216 215 214 213 211 211 210 209 209 209 210 210 211 210 209 208 207 207 206 205 204 203 203 203
235 231 232 235 237 240 240 238 235 231 228 226 224 222 220 219 218 217 217 217 217 216 215 213 213 212 212 212 212 212 212 212 211 211 210 209 208 207 207 206 205 205
247 245 244 244 244 247 246 242 239 235 231 229 228 226 223 221 220 219 219 219 219 218 217 216 215 215 215 215 214 213 212 212 212 212 211 211 210 209 209 209 208 207
263 261 258 257 255 254 251 247 243 239 236 233 230 229 227 225 224 223 222 221 221 220 219 218 217 217 216 215 214 213 212 212 212 212 211 211 210 210 211 211 211 210
281 276 270 267 264 259 256 253 247 243 240 235 232 231 230 229 228 226 224 222 221 220 220 219 218 218 218 216 214 213 212 212 212 212 212 211 210 211 212 213 213 212
303 293 284 276 270 265 261 257 252 247 241 237 235 233 233 231 228 225 225 224 222 220 220 219 220 221 220 219 217 215 213 213 213 213 213 212 211 210 211 213 214 214
327 316 306 293 282 275 269 264 258 251 245 241 238 236 234 231 227 225 224 224 224 222 220 220 222 223 222 221 220 219 216 214 213 213 214 213 212 211 211 212 213 214
339 327 317 305 295 285 277 270 263 256 250 245 242 239 237 233 229 227 225 224 224 224 223 223 224 225 224 222 221 220 219 218 216 215 214 214 214 213 213 212 212 213
352 342 332 320 310 297 286 276 267 259 253 249 247 245 241 237 233 230 227 225 224 224 225 226 227 227 226 225 224 222 221 220 219 217 216 215 216 215 214 214 213 212
1 356 349 340 330 315 299 285 272 264 258 254 251 248 243 239 235 231 229 228 227 227 228 228 229 229 229 228 227 225 223 221 220 220 219 218 218 217 216 215 214 213
4 359 354 350 345 334 315 298 285 273 266 259 253 248 244 240 237 234 231 230 229 229 229 229 229 231 231 231 230 227 225 222 220 219 220 220 220 219 219 218 217 216
9 3 359 355 352 347 335 323 309 292 276 261 248 242 241 238 237 236 235 233 232 231 232 231 231 232 233 233 232 229 225 222 220 219 219 220 220 220 221 220 219 219
8 6 3 358 355 351 344 334 323 310 296 271 240 228 228 226 223 222 222 223 224 225 228 230 232 233 234 234 233 229 225 222 219 217 218 219 219 219 219 219 220 220
4 5 4 2 359 355 348 340 331 319 306 291 265 240 217 200 193 191 192 198 204 210 217 224 229 232 231 229 229 228 226 224 220 216 216 217 214 213 213 214 215 217
358 1 3 3 1 357 351 344 338 327 314 306 286 256 230 206 198 194 191 197 211 219 223 229 236 240 239 234 230 226 225 225 221 215 212 211 207 203 203 206 208 210
353 355 360 4 0 356 351 344 339 334 323 314 292 263 249 218 198 188 176 172 194 217 225 234 241 248 252 249 244 235 226 222 218 212 208 205 202 200 199 200 205 207